CZ-4C DEB, 43627

Orbit data source: Space-Track

CZ-4C DEB, 43627 is space debris in SSO originally from a launch on Wed, 20 Nov 2013 UTC launched from the Taiyaun Space Center, China (TSC). Debris objects in space refer to the collection of defunct objects orbiting the Earth. Examples of debris include non-operational satellites, rocket bodies, and fragments generated from explosions, collisions, or faulty payload assembly.

Loading next visibility...
Identifier
43627, 2013-065D
Orbit
SSO
Country
Flag of CNCN / PRC
Related business
Manufacturer
SAST
Mission
Spacecraft
Bus & Motor
Unknown
Mass
Unknown
Launch date (UTC)
2013-11-20 (13 years ago)
Launch vehicle
Unknown
Launch site
Taiyaun Space Center, China (TSC)
Object type
Payload
Rocket body
Debris
Shape & HBR
Unknown shape, 0.1 m
Radar Cross Section
Small (<0.1 m²)

Expand to show TLE details & history
Last TLE update: 2 days ago

TLE from 2 days ago
0 CZ-4C DEB
1 43627U 13065D   26171.42420646  .00012561  00000-0  42589-2 0  9997
2 43627 100.5755  50.4815 0125831  33.8658 327.0475 14.32496114398286
Epoch: 2026-06-20T10:10Z
TLE epoch observation values (Epoch: 2026-06-20T10:10:51.438Z)
Latitude
0.00005°
Longitude
-10.87186°
Altitude
710.974 km
Speed
7.54 km/s
True Right ascension
03h 21m 55s
True Declination
0° 00' 00"
Sunlit
Object was in daylight at epoch
Visualization orbit readout
Latitude
Unknown
Longitude
Unknown
Altitude
Unknown
Speed
Unknown
Apparent Right ascension
Unknown
Apparent Declination
Unknown
Sunlit
N/A
Visualization observer readout
Local Sidereal Time
23:09:14
Azimuth
Unknown
Elevation
Unknown
Doppler factor
Unknown
Orbital elements
Apogee altitude
870.719 km
Perigee altitude
690.56 km
Semi-major axis
7,158.777 km
Eccentricity
0.01258
Inclination
100.5755°
RAAN
50.4815°
Arg. of periapsis
33.8658°
True anomaly
326.25272°
Mean anomaly
327.0475°
Eccentric anomaly
326.65116°
Mean motion
3.58331 °/min
Orbital period
100.47 mins
BSTAR
0.0042589
Loading maneuver chart data...
Computing Atmospheric mass density...
Loading historical data...
Loading historical data...
Loading historical data...
Loading historical data...
Loading historical data...
Loading historical data...
Loading historical data...

Documentation

Showing up to 5 results
|